#timestamp,LO_Frequency,Hit,StdDev 
1570089615.0,286047000.1,N
1570089615.9,286047000.1,N
1570089635.8,286046999.2,N
1570089655.6,286046996.7,N
1570089675.5,286046996.9,N
1570089695.3,286046998.4,N
1570089715.2,286046998.7,N
1570089735.1,286046999.2,N
1570089736.0,286046999.2,N
1570089755.8,286046999.0,N
1570089775.6,286046998.8,N
1570089795.5,286046999.3,N
1570089815.3,286046996.5,N
1570089835.1,286046996.9,N
1570089855.9,286046997.1,N
1570089875.7,286046995.1,N
1570089895.6,286046998.0,N
1570089915.4,286046998.0,N
1570089935.3,286046997.4,N
1570089955.1,286046997.7,N
1570089956.0,286046997.7,N
1570089975.8,286046995.1,N
1570089995.7,286046997.4,N
1570090015.5,286046998.9,N
1570090035.3,286046999.5,N
1570090055.2,286046996.6,N
1570090075.0,286046997.5,N
1570090075.9,286046997.5,N
1570090095.8,286046995.1,Y
1570090115.6,286046998.7,P
1570090135.4,286047002.3,P
1570090155.3,286046999.8,N
1570090175.1,286047000.5,N
1570090195.9,286047000.2,N
1570090215.7,286047002.7,N
1570090235.5,286047000.1,N
1570090255.4,286047002.2,N
1570090275.2,286047003.1,N
1570090295.0,286047004.1,N
1570090296.0,286047004.1,N
1570090315.8,286047001.6,N
1570090335.6,286046999.8,N
1570090355.5,286047001.9,N
1570090375.3,286047001.4,N
1570090395.1,286047002.6,N
1570090415.9,286047002.8,N
1570090435.7,286047001.9,N
1570090455.6,286047001.4,N
1570090475.4,286047001.4,N
1570090495.2,286047002.6,N
1570090515.1,286047002.7,N
1570090516.0,286047002.7,N
1570090535.8,286047002.2,N
1570090555.7,286047002.7,N
1570090575.5,286047004.4,N
1570090595.3,286047003.8,N
1570090615.2,286047003.1,N
1570090635.0,286047003.3,N
1570090635.9,286047003.3,N
1570090655.8,286047003.0,N
1570090675.6,286047002.9,N
1570090695.4,286047003.8,Y
1570090715.3,286047000.4,P
1570090735.1,286047000.9,N
1570090755.9,286047001.1,N
1570090775.7,286046998.9,N
1570090795.6,286046996.5,Y
1570090815.4,286046997.3,P
1570090835.2,286046997.0,N
1570090855.1,286046997.1,N
1570090856.0,286046997.1,N
1570090875.8,286046999.2,N
1570090895.7,286046998.8,N
1570090915.5,286046999.6,N
1570090935.3,286046996.5,N
1570090955.2,286046999.3,N
1570090975.9,286046996.9,N
1570090995.7,286046997.8,N
1570091015.6,286046997.8,N
1570091035.4,286046995.3,Y
1570091055.3,286046997.7,P
1570091075.1,286046999.4,P
1570091095.8,286046996.8,P
1570091115.7,286046997.4,N
1570091135.5,286046999.2,N
1570091155.4,286046999.4,N
1570091175.2,286046997.4,N
1570091195.0,286046999.6,N
1570091195.9,286046999.6,N
1570091215.8,286046997.0,N
1570091235.6,286046996.9,N
1570091255.4,286046999.6,N
1570091275.3,286046997.3,N
1570091295.1,286046996.8,N
1570091315.9,286046995.3,Y
1570091335.7,286046995.3,P
1570091355.5,286046995.4,P
1570091375.4,286046997.6,N
1570091395.2,286046995.8,Y
1570091415.1,286046999.2,P
1570091416.0,286046999.2,N
1570091435.8,286046999.3,N
1570091455.6,286047001.1,N
1570091475.5,286047000.6,N
1570091495.3,286047000.5,N
1570091515.2,286047000.3,N
1570091535.9,286047002.7,N
1570091555.7,286047001.9,N
1570091575.6,286047001.8,N
1570091595.4,286047004.3,N
1570091615.2,286047001.5,N
1570091635.1,286047004.3,N
1570091636.0,286047004.3,N
1570091655.8,286047001.8,N
1570091675.7,286047003.9,N
1570091695.5,286047004.2,N
1570091715.3,286047001.6,N
1570091735.2,286047002.5,N
1570091755.0,286046999.9,N
1570091755.9,286046999.9,N
1570091775.8,286047000.3,N
1570091795.6,286047000.2,N
1570091815.4,286047001.7,N
1570091835.3,286047002.8,N
1570091855.1,286047000.3,N
1570091875.8,286047001.9,N
1570091895.7,286047001.4,N
1570091915.5,286047004.2,N
1570091935.4,286047004.0,N
1570091955.2,286047001.8,N
1570091975.0,286047002.3,N
1570091975.9,286047002.3,N
1570091995.8,286046999.9,N
1570092015.6,286047000.4,N
1570092035.5,286047000.2,N
1570092055.3,286047002.1,N
1570092075.1,286046999.9,N
1570092095.9,286047000.3,N
1570092115.7,286047000.4,N
1570092135.5,286047000.1,N
1570092155.4,286047001.4,N
1570092175.2,286047001.5,N
1570092195.1,286047001.9,N
1570092196.0,286047001.9,N
1570092215.8,286047002.8,N
1570092235.6,286047002.4,N
1570092255.5,286047001.3,N
1570092275.3,286047004.4,Y
1570092295.2,286047002.8,P
1570092315.0,286047001.8,N
1570092315.9,286047001.8,P
1570092335.8,286047001.6,Y
1570092355.6,286047001.1,P
1570092375.4,286046999.1,N
1570092395.3,286046999.4,N
1570092415.1,286047000.6,N
1570092435.8,286047000.2,N
1570092455.7,286047000.0,N
1570092475.5,286047000.5,N
1570092495.4,286047000.6,N
1570092515.2,286047000.3,N
1570092535.0,286047000.0,N
1570092535.9,286047000.0,N
1570092555.8,286047000.1,N
1570092575.6,286047002.6,Y
1570092595.5,286047003.2,P
1570092615.3,286047005.6,P
1570092635.1,286047004.5,N
1570092655.9,286047004.7,N
1570092675.7,286047003.1,N
1570092695.5,286047003.2,N
1570092715.4,286047003.2,N
1570092735.2,286047003.3,N
1570092755.1,286047004.4,Y
1570092756.0,286047004.4,P
1570092775.8,286046996.7,P
1570092795.6,286046997.1,N
1570092815.5,286046999.6,N
1570092835.3,286046996.7,N
1570092855.1,286046997.0,N
1570092875.9,286046996.6,N
1570092895.7,286046997.1,N
1570092915.6,286046997.7,N
1570092935.4,286046996.7,N
1570092955.2,286046997.5,N
1570092975.1,286046995.1,N
1570092976.0,286046995.1,N
1570092995.8,286046994.9,N
1570093015.7,286046995.4,N
1570093035.5,286046996.5,N
1570093055.3,286046999.4,N
1570093075.2,286046999.3,N
1570093095.0,286046998.1,N
1570093095.9,286046998.1,N
1570093115.8,286047002.3,N
1570093135.6,286047000.4,N
1570093155.4,286046998.6,N
1570093175.3,286047001.0,N
1570093195.1,286047000.0,N
